This demonstration page uses our WeatherBlox Daily Observations layout. Learn more.

Left ArrowRight Arrow

41.12389, -100.76542

Hourly Observations for March 5, 2015

Temp ( °F °C ) Dew Point ( °F °C ) Humidity (%) Winds ( mph kmh ) Pressure ( in mb ) Visibility ( mi km ) Precip ( " mm )
12:53 am 00:53 Clear 6 -14.4 -2 -18.9 69 69 Calm 30.47 1032 10 16 0.00 0.00
1:53 am 01:53 Clear 4 -15.6 -3 -19.4 73 73 Calm 30.47 1032 10 16 0.00 0.00
2:53 am 02:53 Clear 4 -15.6 -3 -19.4 73 73 E 3 6 30.46 1032 10 16 0.00 0.00
3:53 am 03:53 Clear 2 -16.7 -4 -20 76 76 E 5 7 30.45 1031 10 16 0.00 0.00
4:53 am 04:53 Clear 1 -17.2 -4 -20 79 79 ESE 6 9 30.45 1031 10 16 0.00 0.00
5:53 am 05:53 Clear 1 -17.2 -4 -20 79 79 E 5 7 30.46 1032 10 16 0.00 0.00
6:53 am 06:53 Clear 0 -17.8 -5 -20.6 79 79 E 5 7 30.48 1032 10 16 0.00 0.00
7:53 am 07:53 Sunny 5 -15 -1 -18.3 76 76 E 3 6 30.48 1032 10 16 0.00 0.00
8:53 am 08:53 Sunny 13 -10.6 4 -15.6 67 67 SSE 5 7 30.47 1032 10 16 0.00 0.00
9:53 am 09:53 Sunny 19 -7.2 6 -14.4 57 57 S 10 17 30.46 1032 10 16 0.00 0.00
10:53 am 10:53 Sunny 27 -2.8 9 -12.8 46 46 SW 10 17 30.43 1030 10 16 0.00 0.00
11:53 am 11:53 Sunny 34 1.1 11 -11.7 38 38 SW 13 20 30.40 1029 10 16 0.00 0.00
12:53 pm 12:53 Sunny 39 4 10 -12 30 30 undefined N/A 30.30 1026 10 16 0.00 0.00
1:53 pm 13:53 Sunny 45 7.2 7 -13.9 21 21 W 13 20 30.31 1026 10 16 0.00 0.00
2:53 pm 14:53 Sunny 45 7.2 9 -12.8 23 23 WNW 12 19 30.29 1026 10 16 0.00 0.00
3:53 pm 15:53 Sunny 49 9.4 12 -11.1 22 22 W 17 28 30.27 1025 10 16 0.00 0.00
4:53 pm 16:53 Sunny 49 9.4 6 -14.4 17 17 W 13 20 30.27 1025 10 16 0.00 0.00
5:53 pm 17:53 Sunny 47 8.3 8 -13.3 20 20 W 12 19 30.28 1025 10 16 0.00 0.00
6:53 pm 18:53 Clear 35 1.7 8 -13.3 32 32 W 3 6 30.31 1026 10 16 0.00 0.00
7:53 pm 19:53 Clear 31 -0.6 10 -12.2 42 42 NW 3 6 30.32 1027 10 16 0.00 0.00
8:53 pm 20:53 Clear 25 -3.9 11 -11.7 55 55 Calm 30.33 1027 10 16 0.00 0.00
9:53 pm 21:53 Clear 23 -5 11 -11.7 60 60 WNW 5 7 30.34 1027 10 16 0.00 0.00
10:53 pm 22:53 Clear 20 -6.7 10 -12.2 65 65 NW 6 9 30.33 1027 10 16 0.00 0.00
11:53 pm 23:53 Clear 19 -7.2 11 -11.7 71 71 NW 8 13 30.31 1026 10 16 0.00 0.00

Powered by AerisWeather